Weather History for Lanai City, HI

Change the Weather History Date:

Thursday, June 6, 2013

  Actual Average Record
Temperature  
Mean Temperature 72 °F -  
Max Temperature 79 °F 80 °F 84 °F (1993)
Min Temperature 66 °F 64 °F 55 °F (1955)
Cooling Degree Days 8    
Growing Degree Days 22 (Base 50)    
Moisture  
Dew Point 64 °F    
Average Humidity 72    
Maximum Humidity 87    
Minimum Humidity 57    
Precipitation  
Precipitation 0.00 in - - ()
Sea Level Pressure  
Sea Level Pressure 30.02 in    
Wind  
Wind Speed 12 mph (NE)    
Max Wind Speed 23 mph    
Max Gust Speed 30 mph    
Visibility 10 miles    
Events      
Averages and records for this station are not official NWS values.
T = Trace of Precipitation, MM = Missing Value Source: NWS Daily Summary

Daily Weather History Graph

Daily Weather History Graph

Search for Another Location

Airport:

Trip Planner

Search our weather history database for the weather conditions in past years. The results will help you decide how hot, cold, wet, or windy it might be!

Date:

Astronomy

Jun. 06, 2013 Rise Set
Actual Time 5:46 AM HST 7:07 PM HST
Civil Twilight 5:21 AM HST 7:31 PM HST
Nautical Twilight 4:52 AM HST 8:01 PM HST
Astronomical Twilight 4:21 AM HST 8:31 PM HST
Moon 4:24 AM HST (6/6) 5:47 PM HST (6/6)
Length of Visible Light 14h 10m
Length of Day
13h 21m
Waning Crescent, 3% of the Moon is Illuminated
Jun 6
Waning Crescent
Jun 8
New
Jun 16
First Quarter
Jun 23
Full
Jun 29
Last Quarter

Hourly Weather History & Observations

Time (HST) Temp. Dew Point Humidity Pressure Visibility Wind Dir Wind Speed Gust Speed Precip Events Conditions
12:56 AM 68.9 °F 61.9 °F 78% 30.01 in 10.0 mi NE 8.1 mph - N/A   Scattered Clouds
1:56 AM 66.9 °F 61.0 °F 81% 30.00 in 10.0 mi ENE 6.9 mph - N/A   Clear
2:56 AM 66.9 °F 63.0 °F 87% 29.99 in 10.0 mi NNE 10.4 mph - N/A   Clear
3:56 AM 68.9 °F 63.9 °F 84% 29.98 in - NE 10.4 mph - N/A   Mostly Cloudy
4:56 AM 69.8 °F 64.4 °F 83% 30.05 in 10.0 mi NE 11.5 mph - N/A   Overcast
5:43 AM 71.6 °F 64.4 °F 78% 30.07 in 10.0 mi NNE 11.5 mph - N/A   Overcast
5:56 AM 70.9 °F 63.9 °F 78% 30.01 in 10.0 mi NNE 8.1 mph - N/A   Overcast
6:37 AM 69.8 °F 64.4 °F 83% 30.08 in 10.0 mi NNE 11.5 mph - 0.00 in   Overcast
6:56 AM 70.9 °F 63.9 °F 78% 30.02 in 10.0 mi NE 11.5 mph - 0.00 in   Overcast
7:56 AM 72.9 °F 63.9 °F 73% 30.04 in 10.0 mi NE 16.1 mph 25.3 mph N/A   Overcast
8:56 AM 73.9 °F 63.9 °F 71% 30.05 in 10.0 mi East 5.8 mph - N/A   Overcast
9:20 AM 75.2 °F 62.6 °F 65% 30.10 in 10.0 mi Variable 5.8 mph - N/A   Mostly Cloudy
9:28 AM 75.2 °F 64.4 °F 69% 30.10 in 10.0 mi NE 12.7 mph - N/A   Mostly Cloudy
9:36 AM 75.2 °F 64.4 °F 69% 30.10 in 10.0 mi NE 16.1 mph - N/A   Mostly Cloudy
9:56 AM 77.9 °F 63.9 °F 62% 30.04 in 10.0 mi NE 15.0 mph - N/A   Mostly Cloudy
10:56 AM 78.8 °F 62.6 °F 57% 30.08 in 10.0 mi NE 18.4 mph - N/A   Mostly Cloudy
11:56 AM 77.9 °F 63.9 °F 62% 30.01 in 10.0 mi SSE 8.1 mph - N/A   Mostly Cloudy
12:56 PM 77.9 °F 63.0 °F 60% 30.00 in 10.0 mi NE 17.3 mph - N/A   Overcast
1:56 PM 79.0 °F 63.9 °F 60% 29.99 in 10.0 mi NE 13.8 mph - N/A   Mostly Cloudy
2:56 PM 79.9 °F 63.9 °F 58% 29.95 in 10.0 mi NE 23.0 mph - N/A   Mostly Cloudy
3:56 PM 77.0 °F 63.9 °F 64% 29.95 in 10.0 mi NE 20.7 mph 29.9 mph N/A   Clear
4:56 PM 77.9 °F 63.0 °F 60% 29.95 in 10.0 mi NE 20.7 mph - N/A   Clear
5:56 PM 75.9 °F 63.0 °F 64% 29.96 in 10.0 mi NE 21.9 mph 26.5 mph N/A   Partly Cloudy
6:56 PM 72.0 °F 63.0 °F 73% 29.98 in 10.0 mi NE 16.1 mph - N/A   Clear
7:56 PM 70.9 °F 63.0 °F 76% 30.00 in 10.0 mi NE 13.8 mph - N/A   Clear
8:56 PM 70.9 °F 63.0 °F 76% 30.02 in 10.0 mi NE 16.1 mph 19.6 mph N/A   Clear
9:56 PM 70.0 °F 63.9 °F 81% 30.04 in 10.0 mi NE 12.7 mph - N/A   Scattered Clouds
10:56 PM 70.0 °F 63.9 °F 81% 30.05 in - NE 18.4 mph - N/A   Mostly Cloudy
11:56 PM 70.0 °F 63.9 °F 81% 30.04 in - NE 15.0 mph - N/A   Mostly Cloudy